Regional Weather Roundup
Issued by NWS San Angelo, TX

Home | Current Version | Previous Version | Text Only | Print | Product List | Glossary On
Versions: 1 2 3 4 5 6 7 8 9 10 11 12 13 14 15 16 17 18 19 20 21 22 23 24 25 26 27 28 29 30 31 32 33 34 35 36 37 38 39 40 41 42 43 44 45 46 47 48 49 50
000
ASUS44 KSJT 060702
RWRSJT
WEST CENTRAL TEXAS REGIONAL WEATHER ROUNDUP
NATIONAL WEATHER SERVICE SAN ANGELO TX
100 AM CST FRI MAR 06 2015

NOTE: "FAIR" INDICATES FEW OR NO CLOUDS BELOW 12,000 FEET WITH NO
SIGNIFICANT WEATHER AND/OR OBSTRUCTIONS TO VISIBILITY.

TXZ049-054-064>066-071>073-076>078-098-099-113-114-127-128-139-140-
154-155-168>170-060800
...LOCATIONS ACROSS WEST CENTRAL TEXAS...

CITY           SKY/WX    TMP DP  RH WIND       PRES   REMARKS
SAN ANGELO     CLEAR     28  22  78 S3        30.52F
ABILENE        CLEAR     27  20  75 S6        30.53F WCI  20
DYESS AFB      CLEAR     25  20  79 S3        30.51F
JUNCTION       CLEAR     24  22  91 W3        30.53F
SWEETWATER     NOT AVBL
BROWNWOOD      NOT AVBL
COLEMAN        NOT AVBL
SONORA         NOT AVBL
OZONA          NOT AVBL
BRADY          CLEAR     28  18  64 CALM      30.53S
$$

TEXAS PANHANDLE/OKLAHOMA PANHANDLE

CITY           SKY/WX    TMP DP  RH WIND       PRES   REMARKS
AMARILLO       CLEAR     27  23  85 S12       30.36F WCI  17
BORGER         CLEAR     35  23  61 SW14G22   30.35F WCI  26
CANADIAN       CLEAR     30  26  86 CALM      30.39R
DALHART        CLEAR     27  22  81 SW7       30.32F WCI  19
DUMAS          SUNNY     22  17  81 SW7       30.33S WCI  13
GUYMON         NOT AVBL
HEREFORD       NOT AVBL
PAMPA          NOT AVBL
PERRYTON       NOT AVBL
$$

SOUTHERN PANHANDLE/SOUTH PLAINS/ROLLING PLAINS

CITY           SKY/WX    TMP DP  RH WIND       PRES   REMARKS
LUBBOCK        CLEAR     30  23  75 S10       30.42S WCI  21
SNYDER         NOT AVBL
CHILDRESS      CLEAR     29  21  72 S12       30.46S WCI  19
SEMINOLE       SUNNY     27  26  94 W6        30.44F WCI  21
$$

PERMIAN BASIN

CITY           SKY/WX    TMP DP  RH WIND       PRES   REMARKS
MIDLAND        CLEAR     30  25  81 CALM      30.45F
ODESSA         CLEAR     30  24  78 CALM      30.45F
WINK           CLEAR     28  23  81 N3        30.44F
$$

FAR WEST/SOUTHWEST MOUNTAINS/TRANS PECOS

CITY           SKY/WX    TMP DP  RH WIND       PRES   REMARKS
ALPINE         NOT AVBL
DRYDEN           N/A     32  26  78 CALM      30.46F
EL PASO        CLEAR     38  20  48 CALM      30.37F
FORT STOCKTON  CLEAR     28  26  92 SE5       30.44F WCI  23
GUADALUPE PASS NOT AVBL
MARFA          CLEAR     23  21  93 NW6       30.40F WCI  16
PECOS          SUNNY     29  26  91 CALM      30.46F
$$

DALLAS/FORT WORTH METROPLEX

CITY           SKY/WX    TMP DP  RH WIND       PRES   REMARKS
DFW AIRPORT    CLEAR     29  21  72 SW7       30.58S WCI  22
FTW MEACHAM    CLEAR     30  22  72 SW5       30.59S WCI  25
DAL-EXECUTIVE  CLEAR     27  20  75 SW5       30.58S WCI  22
GRAND PRAIRIE  CLEAR     31  24  75 SW5       30.61S WCI  26
ADDISON        NOT AVBL
MESQUITE       SUNNY     27  24  87 CALM      30.61S
LANCASTER      SUNNY     26  21  82 CALM      30.61S
$$

NORTH CENTRAL TEXAS

CITY           SKY/WX    TMP DP  RH WIND       PRES   REMARKS
SHRMAN/DENISON SUNNY     29  23  78 S5        30.58S WCI  24
GAINESVILLE    NOT AVBL
BRIDGEPORT     SUNNY     31  24  75 SW7       30.59S WCI  24
DENTON         CLEAR     28  22  78 S3        30.58F
WAXAHACHIE     SUNNY     26  24  89 SW3       30.61S
GRANBURY       SUNNY     26  21  83 CALM      30.61F
$$

WESTERN NORTH TEXAS

CITY           SKY/WX    TMP DP  RH WIND       PRES   REMARKS
WICHITA FALLS  CLEAR     26  19  74 S8        30.53F WCI  18
VERNON         MOSUNNY   29  19  66 S7        30.52S WCI  22
BRECKENRIDGE   NOT AVBL
COMANCHE       CLEAR     28  20  75 S5        30.56F WCI  22
$$

CENTRAL AND SOUTH CENTRAL TEXAS

CITY           SKY/WX    TMP DP  RH WIND       PRES   REMARKS
AUSTIN/BERGSTM PTCLDY    26  20  77 N8        30.58F WCI  18
WACO           CLEAR     27  20  75 NW3       30.61S
HILLSBORO      NOT AVBL
TEMPLE         CLEAR     25  18  74 N6        30.58F WCI  18
KILLEEN-GRAY   CLEAR     27  19  73 N10       30.56F WCI  17
FORT HOOD      CLEAR     26  21  82 N8        30.56F WCI  17
GEORGETOWN     CLEAR     27  19  74 N5        30.58F WCI  21
LAGO VISTA     FAIR      30  21  68 N6        30.55F WCI  24
SAN MARCOS     CLEAR     28  19  69 N6        30.58F WCI  22
NEW BRAUNFELS  CLEAR     30  22  72 N7        30.57F WCI  23
RANDOLPH AFB   NOT AVBL
SAN ANTONIO    CLEAR     33  21  61 N5        30.57F WCI  29
STINSON        CLEAR     34  22  61 N5        30.56F WCI  30
PLEASANTON     NOT AVBL
LA GRANGE      NOT AVBL
GIDDINGS       SUNNY     32  23  71 N3        30.62S
$$

EAST TEXAS

CITY           SKY/WX    TMP DP  RH WIND       PRES   REMARKS
PARIS          CLEAR     28  21  74 W3        30.58S
CLARKSVILLE    NOT AVBL
TYLER          CLEAR     29  23  78 N3        30.58S
LONGVIEW       CLEAR     26  22  84 CALM      30.57S
PALESTINE      SUNNY     29  26  91 CALM      30.60S
NACOGDOCHES    CLEAR     27  21  80 CALM      30.58S
$$

TEXAS HILL COUNTRY AND EDWARDS PLATEAU

CITY           SKY/WX    TMP DP  RH WIND       PRES   REMARKS
LLANO          NOT AVBL
HORSESHOE BAY  FAIR      25  25 100 CALM      30.57F
KERRVILLE      CLEAR     26  24  91 CALM      30.54S
FREDERICKSBRG  NOT AVBL
ROCKSPRINGS    NOT AVBL
HONDO          CLEAR     28  24  85 N7        30.58F WCI  21
UVALDE         SUNNY     34  27  76 NE6       30.56F WCI  28
DEL RIO        CLEAR     37  28  70 NE6       30.53F WCI  32
$$

SOUTHEAST TEXAS

CITY           SKY/WX    TMP DP  RH WIND       PRES   REMARKS
COLLEGE STN    CLEAR     31  23  72 N9        30.58F WCI  23
CALDWELL       NOT AVBL
CROCKETT       NOT AVBL
BRENHAM        CLEAR     32  28  83 N6        30.59S WCI  26
HUNTSVILLE     CLEAR     29  23  78 CALM      30.57S
CONROE         PTCLDY    30  26  85 N3        30.57F
HOUSTON BUSH   PTCLDY    35  23  61 N5        30.57S WCI  31
HOUSTON HOBBY  PTCLDY    38  22  52 NE13      30.56R WCI  30
PERLAND        CLEAR     39  21  48 NE10G22   30.57R WCI  32
WHARTON        NOT AVBL
$$

THE UPPER TEXAS COAST

CITY           SKY/WX    TMP DP  RH WIND       PRES   REMARKS
ORANGE         SUNNY     34  23  64 N7        30.56S WCI  28
PORT ARTHUR    CLEAR     34  24  67 N10       30.54S WCI  26
GALVESTON      LGT RAIN  39  26  59 N22G28    30.55S WCI  29
ANGLETON       CLEAR     37  23  56 NE14      30.54S WCI  28
BAY CITY       MOSUNNY   38  31  76 N8        30.54F WCI  32
$$

TEXAS COASTAL BEND, RIO GRANDE PLAINS DEEP SOUTH TEXAS

CITY           SKY/WX    TMP DP  RH WIND       PRES   REMARKS
VICTORIA       PTCLDY    36  28  73 N8        30.57F WCI  30
BEEVILLE       FAIR      38  25  61 N10       30.56F WCI  30
ROCKPORT       PTCLDY    41  28  60 N15       30.55S WCI  33
PORT ARANSAS   NOT AVBL
PORT LAVACA    MOSUNNY   37  31  80 N10       30.56F WCI  29
CORPUS CHRISTI MOCLDY    40  28  62 N15       30.56S WCI  32
KINGSVILLE NAS CLOUDY    43  29  57 N14       30.57S WCI  36
COTULLA        PTCLDY    38  26  62 NE8       30.57F WCI  32
LAREDO         MOCLDY    41  25  53 NE10      30.59R WCI  35
BROWNSVILLE    CLOUDY    49  32  52 N12G22    30.50F
PORT ISABEL    CLOUDY    49  35  58 N16       30.49F
HEBBRONVILLE   NOT AVBL
MCALLEN        CLOUDY    50  23  34 N15       30.54F
WESLACO        NOT AVBL
FALFURRIAS     CLOUDY    45  25  45 N13       30.55S WCI  39
EDINBURG       CLOUDY    49  25  38 N12       30.54S
$$


USA.gov is the U.S. government's official web portal to all federal, state and local government web resources and services.